Location: Home
(42.5358°N, 72.7383°W)
Time: 06:32:04
(UTC-05:00)

Envisat - Pass Details

Date: 28 October 2021
Orbit: 764 x 766 km, 98.2° (Epoch: 07 December)

Event Time Altitude Azimuth Distance (km) Brightness Sun altitude
Rises 06:09:47 0° 11° (N) 3,242 6.3 -13.5°
Reaches altitude 10° 06:12:06 10° 10° (N) 2,311 5.5 -13.1°
Maximum altitude 06:17:11 75° 285° (WNW) 794 2.9 -12.1°
Drops below altitude 10° 06:22:13 10° 201° (SSW) 2,293 5.3 -11.2°
Sets 06:24:31 0° 200° (SSW) 3,215 6.1 -10.8°
